Home > Weather > Buenos Aires > Past weeks

Flag for Argentina Weather for the Past 2 Weeks in Buenos Aires, Argentina

Now
77 °F

Sunny.


Feels Like: 79 °F
Forecast: 77 / 89 °F
Wind: 16 mph from North

Location: Buenos Aires Airport

Current Time: Feb 7, 2016 at 7:54:14 AM

Latest Report: Feb 7, 2016 at 7:00 AM


Visibility: 10 mi

Pressure: 29.92 "Hg

Humidity: 79%

Dew point: 70 °F

Location of Buenos AiresLocation

Historic Weather in Buenos Aires — Graph

°F

Buenos Aires Temperature Yesterday

Maximum temperature yesterday: 84 °F (at 1:00 PM)
Minimum temperature yesterday: 77 °F (at 1:00 AM)
Average temperature yesterday: 80 °F

High & Low Weather Summary for the Past Weeks

 TemperatureHumidityPressure
High93 °F (Jan 24, 3:00 PM)89% (Jan 29, 3:00 PM)30.18 "Hg (Jan 29, 3:00 PM)
Low63 °F (Feb 1, 6:00 AM)24% (Jan 25, 6:00 PM)29.47 "Hg (Jan 24, 6:00 PM)
Average77 °F62%29.93 "Hg
* Reported Jan 23 6:00 AM — Feb 7 6:00 AM, Buenos Aires, Weather by CustomWeather, © 2016

Note: Actual official high and low records may vary slightly from our data, if they occured in-between our weather recording intervals... More about our weather records

Advertising

Buenos Aires Weather History for the Previous 24 Hours

 ConditionsComfort  
Time TempWeatherWind HumidityBarometerVisibility
6:00 AM
Sun, Feb 7
77 °FSunny.16 mph79%29.92 "Hg10 mi
5:00 AM77 °FPassing clouds.17 mph74%29.92 "HgN/A
4:00 AM79 °FClear.20 mph70%29.89 "Hg10 mi
3:00 AM79 °FClear.21 mph70%29.92 "Hg10 mi
2:00 AM81 °FClear.20 mph62%29.95 "Hg10 mi
1:00 AM82 °FClear.15 mph58%29.98 "Hg10 mi
11:00 PM
Sat, Feb 6
82 °FClear.10 mph70%29.95 "Hg10 mi
10:00 PM82 °FClear.17 mph70%29.95 "Hg10 mi
9:00 PM81 °FClear.21 mph74%29.95 "Hg10 mi
8:00 PM81 °FClear.21 mph74%29.95 "Hg10 mi
7:00 PM81 °FClear.26 mph74%29.95 "Hg10 mi
6:00 PM82 °FSunny.21 mph74%29.95 "Hg10 mi
5:00 PM84 °FPassing clouds.21 mph70%29.95 "HgN/A
4:00 PM82 °FPassing clouds.16 mph74%29.95 "HgN/A
3:00 PM84 °FPassing clouds.17 mph66%29.98 "HgN/A
2:00 PM82 °FPassing clouds.16 mph70%30.01 "HgN/A
1:00 PM84 °FPassing clouds.9 mph66%30.01 "HgN/A
12:00 PM82 °FSunny.5 mph66%30.04 "Hg10 mi
11:00 AM81 °FSunny.6 mph66%30.04 "Hg10 mi
10:00 AM79 °FSunny.8 mph65%30.04 "Hg10 mi
9:00 AM79 °FSunny.9 mph65%30.04 "Hg10 mi
8:00 AM77 °FSunny.9 mph69%30.07 "Hg10 mi
7:00 AM77 °FScattered clouds.9 mph69%30.04 "HgN/A
Weather by CustomWeather, © 2016

See weather overviewHow to use our weather pages